Ubon Ratchathani Airport
VTUU : now visible

Airfield :











YOU CAN JOIN US ON...

 
LOGIN :

Register | Disclaimer

   EN    FR    IT 

 









Legend :    VFR   Marginal VFR   IFR   Intensive IFR   Very Intensive IFR
Visi :
Ceiling :
>= 8 km
>= 3000ft
5 to 8 km
1000 to 3000 ft
1500m to 5 km
500 to 1000 ft
800 to 1500m
200 to 500 ft
< 800m
< 200 ft
Symbols :   Thunderstorms  Fog  Heavy snow  Heavy precipitations  Wind > 20 kt






- Airport Elevation : 406 ft
- IATA code : UBP


VTUU - Ubon Ratchathani

CURRENT METAR :
  • 232000Z 10003KT 070V130 9000 NSC 26/23 Q1012 NOSIG

EXPIRED METARs :
  • 231900Z 03003KT 9000 NSC 26/22 Q1012 NOSIG
  • 231800Z VRB02KT 9000 NSC 27/23 Q1012 NOSIG
  • 231700Z VRB02KT 9000 NSC 27/23 Q1012 NOSIG
  • 231600Z 00000KT 9000 NSC 27/23 Q1012 NOSIG

TAF TAF VTUU
Valid from the 23 at 18:00 until the 24 at 18:00 UTC


231700Z 2318/2418 09005KT 8000 FEW035
BECMG 2323/2324 15005KT
TEMPO 2323/2402 4800 BR
VTBB FIR / Asia



MET'MAP, your aeronautical weather chart ! - Copyright ORBIFLY December 2007 - Disclaimer

ORBIFLY MET'MAP TEAM :

Programming & Development : Alexandra Zaïnal
Original concept : Baudouin d'Aumeries
Technical & hardware support : Manuel Goepfert
Assistance : Marc-Olivier Méhu




SOURCES & CREDITS :

   NOAA       Earth
Advisory